Change the Weather History Date:

Saturday, January 1, 2000

  Actual Average Record
Temperature  
Mean Temperature 24 °F -  
Max Temperature 32 °F 22 °F 37 °F (1998)
Min Temperature 17 °F 7 °F -25 °F (1999)
Degree Days  
Heating Degree Days 40    
Moisture  
Dew Point 24 °F    
Average Humidity 94    
Maximum Humidity 100    
Minimum Humidity 86    
Precipitation  
Precipitation 0.00 in - - ()
Sea Level Pressure  
Sea Level Pressure 29.87 in    
Wind  
Wind Speed 5 mph (NE)    
Max Wind Speed 9 mph    
Max Gust Speed -    
Visibility 9 miles    
Events      
Averages and records for this station are not official NWS values.
T = Trace of Precipitation, MM = Missing Value Source: NWS Daily Summary

Daily Weather History Graph

Daily Weather History Graph

Search for Another Location

Airport or City:

Trip Planner

Search our weather history database for the weather conditions in past years. The results will help you decide how hot, cold, wet, or windy it might be!

Date:

Astronomy

Jan. 01, 2000 Rise Set
Actual Time 7:42 AM CST 4:27 PM CST
Civil Twilight 7:08 AM CST 5:01 PM CST
Nautical Twilight 6:30 AM CST 5:39 PM CST
Astronomical Twilight 5:54 AM CST 6:15 PM CST
Moon 2:48 AM CST (1/1) 1:32 PM CST (1/1)
Length of Visible Light 9h 53m
Length of Day
8h 45m
Waning Crescent, 21% of the Moon is Illuminated
Jan 1
Waning Crescent
Jan 6
New
Jan 14
First Quarter
Jan 20
Full
Jan 28
Last Quarter

Hourly Weather History & Observations

Time (CST) Temp. Windchill Dew Point Humidity Pressure Visibility Wind Dir Wind Speed Gust Speed Precip Events Conditions
12:07 AM 32.0 °F 24.8 °F 28.4 °F 87% 29.67 in 10.0 mi SW 8.1 mph - N/A   Clear
12:27 AM 32.0 °F 26.4 °F 28.4 °F 87% 29.68 in 10.0 mi WSW 5.8 mph - N/A   Clear
12:47 AM 32.0 °F 26.4 °F 28.4 °F 87% 29.68 in 10.0 mi SW 5.8 mph - N/A   Clear
1:07 AM 30.2 °F 25.4 °F 26.6 °F 86% 29.69 in 10.0 mi SW 4.6 mph - N/A   Clear
1:27 AM 28.4 °F 23.3 °F 26.6 °F 93% 29.70 in 10.0 mi SW 4.6 mph - N/A   Clear
1:47 AM 30.2 °F 26.7 °F 28.4 °F 93% 29.71 in 10.0 mi West 3.5 mph - N/A   Clear
2:07 AM 28.4 °F 24.6 °F 28.4 °F 100% 29.73 in 10.0 mi WSW 3.5 mph - N/A   Clear
2:27 AM 28.4 °F 23.3 °F 28.4 °F 100% 29.74 in 10.0 mi West 4.6 mph - N/A   Clear
2:47 AM 28.4 °F 24.6 °F 28.4 °F 100% 29.75 in 10.0 mi West 3.5 mph - N/A   Clear
3:07 AM 28.4 °F - 28.4 °F 100% 29.76 in 10.0 mi Calm Calm - N/A   Clear
3:27 AM 26.6 °F - 26.6 °F 100% 29.76 in 10.0 mi Calm Calm - N/A   Clear
3:47 AM 26.6 °F - 26.6 °F 100% 29.77 in 10.0 mi Calm Calm - N/A   Clear
4:07 AM 26.6 °F - 26.6 °F 100% 29.78 in 10.0 mi Calm Calm - N/A   Clear
4:27 AM 26.6 °F - 26.6 °F 100% 29.80 in 10.0 mi Calm Calm - N/A   Clear
4:47 AM 24.8 °F - 24.8 °F 100% 29.81 in 10.0 mi Calm Calm - N/A   Clear
5:07 AM 23.0 °F - 23.0 °F 100% 29.81 in 7.0 mi Calm Calm - N/A   Clear
5:27 AM 19.4 °F - 19.4 °F 100% 29.83 in 1.0 mi Calm Calm - N/A   Clear
5:47 AM 19.4 °F - 19.4 °F 100% 29.84 in 1.0 mi Calm Calm - N/A   Clear
6:07 AM 21.2 °F - 21.2 °F 100% 29.86 in 7.0 mi Calm Calm - N/A   Clear
6:27 AM 21.2 °F - 21.2 °F 100% 29.87 in 10.0 mi Calm Calm - N/A   Clear
6:47 AM 19.4 °F - 19.4 °F 100% 29.88 in 10.0 mi Calm Calm - N/A   Clear
7:07 AM 19.4 °F - 19.4 °F 100% 29.89 in 7.0 mi Calm Calm - N/A   Clear
7:27 AM 19.4 °F - 19.4 °F 100% 29.91 in 7.0 mi Calm Calm - N/A   Clear
7:47 AM 17.6 °F - 17.6 °F 100% 29.91 in 7.0 mi Calm Calm - N/A   Mostly Cloudy
8:07 AM 19.4 °F 14.3 °F 19.4 °F 100% 29.92 in 7.0 mi NNW 3.5 mph - N/A   Overcast
8:27 AM 21.2 °F 16.4 °F 21.2 °F 100% 29.92 in 10.0 mi NNW 3.5 mph - N/A   Overcast
8:47 AM 23.0 °F 17.0 °F 23.0 °F 100% 29.93 in 10.0 mi North 4.6 mph - N/A   Overcast
9:07 AM 23.0 °F 13.1 °F 23.0 °F 100% 29.93 in 10.0 mi North 9.2 mph - N/A   Overcast
9:27 AM 24.8 °F 15.3 °F 24.8 °F 100% 29.94 in 10.0 mi North 9.2 mph - N/A   Overcast
9:47 AM 24.8 °F 16.1 °F 24.8 °F 100% 29.94 in 10.0 mi NNE 8.1 mph - N/A   Overcast
10:07 AM 24.8 °F 16.9 °F 24.8 °F 100% 29.96 in 10.0 mi NNE 6.9 mph - N/A   Overcast
10:27 AM 24.8 °F 16.9 °F 24.8 °F 100% 29.97 in 10.0 mi NNE 6.9 mph - N/A   Overcast
10:47 AM 24.8 °F 17.9 °F 24.8 °F 100% 29.97 in 10.0 mi NNE 5.8 mph - N/A   Overcast
11:07 AM 26.6 °F 20.0 °F 24.8 °F 93% 29.99 in 10.0 mi NNE 5.8 mph - N/A   Overcast
11:27 AM 26.6 °F 19.1 °F 24.8 °F 93% 29.98 in 10.0 mi NNE 6.9 mph - N/A   Overcast
11:47 AM 26.6 °F 21.2 °F 24.8 °F 93% 29.98 in 10.0 mi NNE 4.6 mph - N/A   Overcast
12:07 PM 26.6 °F 18.2 °F 24.8 °F 93% 29.95 in 10.0 mi NNE 8.1 mph - N/A   Overcast
12:27 PM 26.6 °F 18.2 °F 24.8 °F 93% 29.95 in 10.0 mi NNE 8.1 mph - N/A   Overcast
12:47 PM 26.6 °F 19.1 °F 24.8 °F 93% 29.95 in 10.0 mi ENE 6.9 mph - N/A   Overcast
1:07 PM 26.6 °F 20.0 °F 24.8 °F 93% 29.95 in 10.0 mi East 5.8 mph - N/A   Overcast
1:27 PM 26.6 °F 20.0 °F 24.8 °F 93% 29.96 in 10.0 mi ENE 5.8 mph - N/A   Overcast
1:47 PM 26.6 °F 20.0 °F 24.8 °F 93% 29.95 in 10.0 mi ENE 5.8 mph - N/A   Overcast
2:07 PM 28.4 °F 22.2 °F 24.8 °F 86% 29.93 in 10.0 mi NE 5.8 mph - N/A   Overcast
2:27 PM 28.4 °F 23.3 °F 24.8 °F 86% 29.94 in 10.0 mi ENE 4.6 mph - N/A   Overcast
2:47 PM 28.4 °F 21.2 °F 24.8 °F 86% 29.93 in 10.0 mi ENE 6.9 mph - N/A   Overcast
3:07 PM 28.4 °F 23.3 °F 24.8 °F 86% 29.93 in 10.0 mi East 4.6 mph - N/A   Overcast
3:27 PM 28.4 °F 22.2 °F 24.8 °F 86% 29.93 in 10.0 mi ENE 5.8 mph - N/A   Overcast
3:47 PM 28.4 °F 24.6 °F 24.8 °F 86% 29.94 in 10.0 mi East 3.5 mph - N/A   Overcast
4:07 PM 28.4 °F 22.2 °F 24.8 °F 86% 29.94 in 10.0 mi ENE 5.8 mph - N/A   Overcast
4:27 PM 28.4 °F 21.2 °F 24.8 °F 86% 29.92 in 10.0 mi ENE 6.9 mph - N/A   Overcast
4:47 PM 28.4 °F 21.2 °F 24.8 °F 86% 29.92 in 10.0 mi East 6.9 mph - N/A   Overcast
5:07 PM 28.4 °F 19.7 °F 24.8 °F 86% 29.91 in 10.0 mi ENE 9.2 mph - N/A   Overcast
5:27 PM 26.6 °F 18.2 °F 24.8 °F 93% 29.91 in 10.0 mi East 8.1 mph - N/A   Overcast
6:07 PM 26.6 °F 20.0 °F 24.8 °F 93% 29.90 in 10.0 mi East 5.8 mph - N/A   Overcast
6:27 PM 26.6 °F 21.2 °F 24.8 °F 93% 29.90 in 10.0 mi East 4.6 mph - N/A   Overcast
6:47 PM 26.6 °F 20.0 °F 23.0 °F 86% 29.89 in 10.0 mi East 5.8 mph - N/A   Overcast
7:07 PM 26.6 °F 19.1 °F 23.0 °F 86% 29.89 in 10.0 mi East 6.9 mph - N/A   Mostly Cloudy
7:27 PM 26.6 °F 19.1 °F 23.0 °F 86% 29.87 in 10.0 mi ENE 6.9 mph - N/A   Scattered Clouds
7:47 PM 26.6 °F 21.2 °F 23.0 °F 86% 29.88 in 10.0 mi East 4.6 mph - N/A   Scattered Clouds
8:07 PM 26.6 °F 20.0 °F 24.8 °F 93% 29.88 in 10.0 mi East 5.8 mph - N/A   Scattered Clouds
8:27 PM 26.6 °F 20.0 °F 24.8 °F 93% 29.87 in 10.0 mi East 5.8 mph - N/A   Mostly Cloudy
8:47 PM 26.6 °F 19.1 °F 24.8 °F 93% 29.87 in 10.0 mi East 6.9 mph - N/A   Mostly Cloudy
9:07 PM 26.6 °F 19.1 °F 24.8 °F 93% 29.87 in 10.0 mi East 6.9 mph - N/A   Overcast
9:27 PM 26.6 °F 19.1 °F 24.8 °F 93% 29.87 in 10.0 mi East 6.9 mph - N/A   Mostly Cloudy
9:47 PM 26.6 °F 21.2 °F 24.8 °F 93% 29.86 in 10.0 mi East 4.6 mph - N/A   Mostly Cloudy
10:07 PM 28.4 °F 22.2 °F 24.8 °F 86% 29.86 in 10.0 mi East 5.8 mph - N/A   Mostly Cloudy
10:27 PM 28.4 °F 20.4 °F 24.8 °F 86% 29.85 in 10.0 mi East 8.1 mph - N/A   Overcast
11:07 PM 28.4 °F 19.7 °F 24.8 °F 86% 29.82 in 10.0 mi East 9.2 mph - N/A   Overcast
11:27 PM 28.4 °F 20.4 °F 26.6 °F 93% 29.81 in 10.0 mi East 8.1 mph - N/A   Overcast
11:47 PM 28.4 °F 19.7 °F 26.6 °F 93% 29.80 in 10.0 mi East 9.2 mph - N/A   Overcast